SCP
-0 -0 -0 -0 -0 0 0 0 1 1 1 1 0 -0 -0 -0 0 1 1 0 1 1 1 1 1 0 0 0 0 0 1 1 0 0 0 0 0 0 0 0 0 0 0
-0 -0 -0 -0 0 0 0 0 1 1 1 1 1 1 1 0 0 1 0 0 0 1 1 1 1 1 0 1 1 0 0 1 0 0 0 0 0 0 0 0 0 0 0
0 0 0 0 0 0 0 0 0 0 1 1 1 1 1 0 0 0 0 1 1 0 0 1 1 1 1 0 1 1 1 1 1 0 1 0 0 0 0 0 0 0 0
0 0 0 0 0 0 0 0 0 0 0 1 1 1 1 0 0 -0 -0 0 1 0 0 0 0 1 1 1 0 1 1 2 1 1 0 0 0 0 0 0 0 0 0
0 0 0 0 0 0 0 0 0 0 0 0 0 1 1 0 0 0 -0 0 0 0 1 1 1 1 1 1 1 1 1 1 2 2 1 0 0 0 0 0 0 0 0
0 0 0 0 0 0 0 0 0 0 0 0 0 1 1 0 0 0 0 0 0 0 0 0 1 1 1 1 1 1 1 1 2 3 2 0 0 0 0 0 0 0 0
0 0 0 0 0 0 0 0 0 0 0 0 0 0 0 0 0 0 0 0 0 0 0 0 1 1 1 1 1 1 1 2 2 2 1 1 1 0 0 0 0 0 0
0 0 0 0 0 0 0 0 0 0 0 0 0 0 0 0 0 0 0 0 0 0 1 1 1 1 1 1 1 1 1 1 2 1 0 1 0 0 0 0 0 0 0
0 0 0 0 0 0 0 0 0 0 0 0 0 0 0 0 0 0 0 0 1 1 1 1 1 0 1 1 1 1 1 1 1 1 0 1 0 0 0 0 0 0 0
0 0 0 0 0 0 0 0 0 0 0 0 0 0 0 0 0 0 0 0 0 0 1 1 1 1 1 1 1 1 1 2 1 1 1 1 0 0 0 0 0 0 0
0 0 0 0 0 0 0 0 0 0 0 0 0 0 0 0 0 0 0 0 0 0 0 0 1 0 0 1 1 1 1 1 1 1 1 0 0 0 0 0 0 0 0
0 0 0 0 0 0 0 0 0 0 0 0 0 0 0 0 0 0 0 0 0 0 0 0 0 0 0 1 1 1 1 1 1 1 0 0 0 0 0 0 0 0 0
-0 0 0 0 0 0 0 0 0 0 0 0 0 0 0 0 0 0 0 0 0 0 0 0 0 0 0 1 1 1 1 1 1 1 1 0 0 0 0 0 0 0 0
0 0 0 0 0 0 0 0 0 0 0 0 0 0 0 0 0 0 0 0 0 0 0 0 0 0 0 0 1 1 1 0 1 1 1 0 0 0 0 0 0 0 0
0 0 0 0 0 0 0 0 0 0 0 0 0 0 0 0 0 0 0 0 0 0 0 0 0 0 0 1 1 1 1 1 1 0 0 0 0 0 0 0 0 0 0
0 0 0 0 0 0 0 0 0 0 0 0 0 0 0 0 0 0 0 0 0 0 0 0 0 0 0 1 1 1 1 1 1 0 0 0 0 0 0 0 0 0 0
0 0 0 0 0 0 0 0 0 0 0 0 0 0 0 0 0 0 0 0 0 0 0 0 0 0 0 0 0 0 1 1 1 0 0 0 0 0 0 0 0 0 0
0 0 0 0 0 0 0 0 0 0 0 0 0 0 0 0 0 0 0 0 0 0 0 0 0 0 0 0 0 0 0 0 0 0 0 0 0 0 0 0 0 0 0
-0 -0 0 0 0 0 0 0 0 0 0 0 0 0 0 0 0 0 0 0 0 0 0 0 0 0 0 0 0 0 0 0 0 0 0 0 0 0 0 0 0 0 0
0 0 0 0 0 0 0 0 0 0 0 0 0 0 0 0 0 0 0 0 0 0 0 0 0 0 0 0 0 0 1 0 0 0 0 0 0 0 0 0 0 0 0
0 0 0 0 0 0 0 0 0 0 0 0 0 0 0 0 0 0 0 -0 0 0 0 0 0 0 0 0 0 0 0 0 0 0 0 0 0 0 0 0 0 0 0
0 0 0 0 0 0 0 0 0 0 0 0 0 0 0 0 0 0 0 0 0 0 0 0 0 0 0 0 0 0 0 0 0 0 0 0 0 0 0 0 0 0 0
0 0 0 0 0 0 0 0 0 0 0 0 0 0 0 0 0 0 0 0 -0 0 0 0 0 0 0 0 0 -0 0 0 0 0 0 0 0 0 0 0 0 0 0
0 0 0 0 0 0 0 0 0 0 0 0 0 0 0 0 0 0 0 0 0 0 0 0 0 0 0 0 0 0 -0 -0 0 0 0 0 0 0 0 0 0 0 0
0 0 0 0 0 0 0 0 0 0 0 0 0 0 0 0 0 0 0 0 0 0 0 0 0 0 0 0 0 0 0 -0 0 0 0 0 0 0 0 0 0 0 0
0 0 0 0 0 0 0 0 0 0 0 0 0 0 -0 -0 -0 -0 -0 -0 -0 -0 0 0 -0 0 0 0 0 0 0 0 0 0 0 0 0 0 0 0 0 0 0
Wind_Speed_500mb
24 32 38 40 46 49 48 46 41 36 33 29 29 26 16 15 12 8 9 8 13 19 25 29 37 41 47 53 49 48 43 42 35 38 33 32 34 36 35 34 31 25 21
26 28 47 51 49 46 48 50 46 40 40 37 30 25 23 20 23 26 26 21 19 18 22 29 31 35 43 38 47 51 44 39 41 38 33 25 36 43 45 45 42 34 30
22 12 20 32 41 43 49 51 45 42 42 39 37 31 28 28 28 25 28 29 32 32 29 28 29 29 36 44 30 42 53 43 45 47 33 17 25 25 43 52 48 43 39
7 6 15 21 27 32 40 43 44 39 40 37 37 40 40 38 36 38 36 36 40 41 40 34 33 31 30 40 45 58 57 51 49 51 60 46 27 16 12 36 45 48 47
12 16 18 18 20 22 24 26 31 34 36 37 37 36 37 39 40 39 37 38 41 45 46 45 42 38 34 35 40 55 63 64 57 56 53 64 56 46 29 20 25 41 47
19 20 19 16 13 11 13 18 21 25 27 27 26 26 27 29 32 33 35 35 36 37 38 43 47 47 42 39 45 47 65 68 65 61 62 61 57 45 42 28 23 22 36
12 17 20 19 14 7 3 7 13 17 21 25 27 27 27 27 30 33 35 38 41 43 40 36 42 51 50 46 45 52 54 69 73 66 65 67 68 55 51 35 24 19 26
2 5 10 6 2 6 12 15 18 21 25 28 28 27 26 27 31 35 38 41 43 44 44 45 43 47 52 52 53 51 53 54 62 66 66 71 71 68 60 53 43 23 21
5 12 9 12 23 26 27 33 35 37 39 36 33 29 29 30 32 39 46 50 52 55 55 52 50 49 54 57 53 51 52 58 63 72 71 82 74 65 56 52 47 34 23
7 15 24 28 36 40 39 43 50 49 42 37 33 30 28 33 41 46 43 51 52 53 56 59 58 55 53 55 59 55 54 60 66 78 83 79 73 65 54 55 48 49 33
18 31 37 45 43 41 39 46 58 54 44 37 29 26 28 35 37 42 53 54 50 52 53 55 56 57 60 60 61 63 58 59 66 70 78 93 72 63 58 54 52 52 43
45 46 47 54 53 50 45 52 56 52 43 33 27 27 28 33 43 49 56 54 50 53 61 59 59 61 59 59 62 65 65 64 69 78 86 92 85 69 60 52 58 56 47
47 49 52 49 51 48 37 29 34 40 35 29 26 29 35 44 47 51 53 54 49 52 61 66 67 65 60 56 60 63 65 68 69 73 93 90 93 78 72 66 62 59 52
53 52 43 24 18 16 15 20 26 29 31 33 35 42 46 48 52 53 55 58 58 59 60 64 68 72 70 67 60 63 64 70 73 72 79 92 105 90 78 69 66 60 55
32 18 9 11 12 15 17 19 22 29 36 43 49 55 59 66 66 64 65 64 65 65 68 69 66 69 70 67 65 64 70 73 75 76 78 90 85 91 77 70 65 59 60
21 24 26 28 30 34 42 44 48 50 52 60 66 71 75 76 75 73 71 73 72 71 71 72 68 67 73 68 62 70 74 75 74 80 81 80 80 83 73 61 57 52 59
29 32 33 39 47 53 55 62 65 70 75 77 82 84 86 86 83 78 74 75 75 78 78 79 71 70 75 76 61 70 73 75 78 84 83 77 92 86 71 59 56 49 39
32 43 56 63 63 61 62 64 64 64 68 70 71 76 77 78 75 71 72 75 76 82 86 81 75 70 75 74 69 63 67 73 83 85 81 79 89 85 74 70 62 54 46
60 63 63 65 64 67 69 68 67 66 65 67 64 60 61 62 56 64 71 75 82 85 82 79 75 71 75 73 66 61 63 69 88 88 75 96 100 93 79 69 72 63 58
59 66 66 66 72 68 63 68 69 65 64 62 62 59 54 52 60 66 75 83 87 90 79 80 73 74 73 70 63 61 64 71 89 84 80 90 90 83 77 78 79 71 66
66 65 69 78 74 69 68 73 72 72 69 67 65 61 63 77 82 87 93 92 88 81 77 76 70 70 66 64 65 60 65 78 99 97 93 97 99 97 76 82 75 70 67
74 70 76 74 74 73 72 77 80 83 83 73 70 72 75 72 73 74 81 75 67 70 74 66 64 65 64 62 59 52 62 84 98 87 87 87 83 80 83 79 72 64 62
72 73 80 85 82 81 82 85 85 76 77 80 95 94 72 64 61 66 67 61 59 63 63 59 61 59 58 53 47 35 43 76 103 101 96 95 83 83 82 76 65 63 63
78 77 78 80 83 73 68 73 78 74 77 77 75 71 68 62 67 70 68 60 65 68 61 59 61 61 68 56 48 42 45 61 61 109 91 88 89 84 78 70 63 65 66
78 74 76 80 85 82 82 81 78 73 75 74 77 74 74 73 65 67 70 68 69 71 63 60 59 65 69 75 57 45 50 56 81 108 101 98 97 91 83 75 74 73 70
75 81 79 78 80 78 77 75 70 68 67 70 68 65 63 63 59 62 65 65 70 71 63 63 62 67 73 72 57 34 41 69 104 117 102 103 101 95 93 88 81 75 72
Wind_Direction_500mb
267 248 237 236 229 232 224 222 220 225 216 215 214 219 223 215 224 245 243 264 285 276 271 276 267 263 247 243 242 241 240 237 240 244 235 226 221 226 231 236 238 236 236
288 261 244 243 235 224 222 222 226 229 226 225 224 236 249 260 260 264 264 262 281 286 287 284 289 278 247 248 243 244 241 238 237 231 216 211 226 229 233 235 235 234 238
303 275 224 226 209 216 219 225 232 236 230 232 226 233 243 251 259 265 266 271 274 277 280 283 283 286 262 247 241 252 242 240 241 232 218 196 224 215 236 239 239 235 238
357 134 163 178 193 208 216 222 224 225 221 230 235 233 239 250 258 266 271 271 272 277 275 270 274 279 276 261 236 229 249 240 238 236 226 226 225 210 215 236 238 235 237
87 97 118 144 161 171 180 194 204 211 220 223 225 234 241 249 258 266 269 275 278 273 271 265 263 265 276 269 246 236 239 233 235 239 234 238 240 244 239 242 227 237 237
99 103 109 114 123 138 168 189 198 206 214 222 227 235 248 257 265 272 278 279 284 284 283 267 260 260 263 274 263 248 239 233 229 239 242 242 239 238 235 235 231 228 236
119 110 103 92 73 70 157 215 229 239 239 242 246 250 256 266 274 277 276 278 281 281 283 283 274 262 264 270 265 254 244 240 232 236 244 246 247 240 252 239 230 217 233
151 158 144 115 24 259 240 249 258 254 250 244 247 256 266 275 279 281 285 284 284 282 283 281 276 268 261 265 264 257 249 241 241 223 235 243 241 243 250 250 247 225 224
72 46 241 226 296 301 271 257 252 248 241 238 241 252 261 273 288 292 293 292 285 281 275 274 276 271 268 261 261 255 252 243 241 229 229 235 235 235 243 248 253 231 215
336 319 324 302 293 284 271 261 254 243 234 233 237 247 272 291 298 300 299 300 292 278 270 267 268 269 269 264 257 255 250 243 247 238 239 231 230 229 236 247 248 245 229
312 311 306 306 294 277 266 265 254 242 232 236 246 265 279 291 294 296 300 302 296 279 270 267 267 267 266 263 258 256 253 246 248 245 235 226 231 231 231 239 243 237 232
299 294 295 295 285 272 268 268 253 233 227 234 250 267 278 280 286 292 295 298 293 284 277 274 271 269 268 267 260 254 257 253 246 245 242 234 231 232 233 234 237 234 231
293 290 290 286 281 269 270 250 221 217 231 243 259 265 274 283 291 294 290 290 293 295 283 275 271 271 271 265 260 254 251 255 254 246 241 239 232 232 228 228 228 227 228
280 287 293 279 271 263 250 235 238 245 252 257 259 269 277 286 290 291 289 286 287 293 296 283 271 269 270 267 258 250 248 256 255 253 240 240 236 231 227 226 225 223 222
281 271 311 346 1 345 324 308 292 282 277 274 271 274 279 284 286 284 281 282 282 288 298 293 275 265 265 265 258 249 247 253 258 250 240 243 236 226 226 227 223 217 214
288 289 309 319 318 310 304 299 292 286 280 276 276 280 282 283 286 282 277 273 278 284 295 291 280 266 262 266 261 251 250 257 251 247 239 240 219 222 220 226 229 226 216
304 306 308 307 305 301 299 295 291 288 284 282 281 280 281 281 280 279 275 267 273 283 290 290 281 267 260 264 265 255 248 254 250 246 238 236 223 222 212 213 211 215 219
302 298 297 296 295 294 290 287 283 282 281 280 278 278 278 278 275 270 263 264 274 284 288 287 279 266 258 258 263 267 246 247 250 246 243 240 209 205 198 196 201 202 199
296 294 292 289 288 289 287 282 278 277 274 272 273 275 273 269 261 259 263 271 279 286 285 282 276 265 256 257 261 262 245 242 246 243 245 230 215 194 193 196 196 193 190
294 293 291 285 288 286 284 279 276 273 272 272 272 271 263 259 262 266 271 275 280 283 280 276 270 266 257 255 257 253 242 240 238 235 238 220 196 189 193 196 195 191 187
296 295 290 287 286 286 284 279 274 271 274 272 269 265 265 272 274 275 276 279 278 276 272 271 268 262 256 254 250 245 238 234 234 231 227 209 200 196 201 194 195 196 189
295 294 292 287 284 283 279 275 273 274 274 266 265 270 272 268 266 267 269 270 264 266 265 266 264 253 258 244 245 253 231 235 233 213 207 193 189 193 190 190 194 194 191
293 293 290 289 286 284 278 274 274 271 266 266 268 271 265 260 261 264 262 258 257 255 258 258 255 253 246 231 230 230 221 225 223 214 203 193 192 182 184 189 188 186 189
296 295 291 286 286 285 281 277 279 278 271 270 269 268 260 257 260 262 258 253 252 252 251 252 247 247 228 224 227 225 217 217 235 215 202 195 174 180 180 182 183 188 189
297 296 292 289 288 290 286 286 282 278 272 269 269 264 259 263 263 260 255 254 252 249 250 248 237 237 233 224 227 227 221 225 221 215 186 173 172 175 176 176 179 182 182
306 306 304 299 297 295 290 287 284 277 274 272 270 266 262 260 258 257 258 257 260 257 247 235 238 244 247 228 217 229 234 219 208 186 176 170 175 174 175 175 177 180 179
Wind_Speed_850mb
24 32 38 40 46 49 48 46 41 36 33 29 29 26 16 15 12 8 9 8 13 19 25 29 37 41 47 53 49 48 43 42 35 38 33 32 34 36 35 34 31 25 21
26 28 47 51 49 46 48 50 46 40 40 37 30 25 23 20 23 26 26 21 19 18 22 29 31 35 43 38 47 51 44 39 41 38 33 25 36 43 45 45 42 34 30
22 12 20 32 41 43 49 51 45 42 42 39 37 31 28 28 28 25 28 29 32 32 29 28 29 29 36 44 30 42 53 43 45 47 33 17 25 25 43 52 48 43 39
7 6 15 21 27 32 40 43 44 39 40 37 37 40 40 38 36 38 36 36 40 41 40 34 33 31 30 40 45 58 57 51 49 51 60 46 27 16 12 36 45 48 47
12 16 18 18 20 22 24 26 31 34 36 37 37 36 37 39 40 39 37 38 41 45 46 45 42 38 34 35 40 55 63 64 57 56 53 64 56 46 29 20 25 41 47
19 20 19 16 13 11 13 18 21 25 27 27 26 26 27 29 32 33 35 35 36 37 38 43 47 47 42 39 45 47 65 68 65 61 62 61 57 45 42 28 23 22 36
12 17 20 19 14 7 3 7 13 17 21 25 27 27 27 27 30 33 35 38 41 43 40 36 42 51 50 46 45 52 54 69 73 66 65 67 68 55 51 35 24 19 26
2 5 10 6 2 6 12 15 18 21 25 28 28 27 26 27 31 35 38 41 43 44 44 45 43 47 52 52 53 51 53 54 62 66 66 71 71 68 60 53 43 23 21
5 12 9 12 23 26 27 33 35 37 39 36 33 29 29 30 32 39 46 50 52 55 55 52 50 49 54 57 53 51 52 58 63 72 71 82 74 65 56 52 47 34 23
7 15 24 28 36 40 39 43 50 49 42 37 33 30 28 33 41 46 43 51 52 53 56 59 58 55 53 55 59 55 54 60 66 78 83 79 73 65 54 55 48 49 33
18 31 37 45 43 41 39 46 58 54 44 37 29 26 28 35 37 42 53 54 50 52 53 55 56 57 60 60 61 63 58 59 66 70 78 93 72 63 58 54 52 52 43
45 46 47 54 53 50 45 52 56 52 43 33 27 27 28 33 43 49 56 54 50 53 61 59 59 61 59 59 62 65 65 64 69 78 86 92 85 69 60 52 58 56 47
47 49 52 49 51 48 37 29 34 40 35 29 26 29 35 44 47 51 53 54 49 52 61 66 67 65 60 56 60 63 65 68 69 73 93 90 93 78 72 66 62 59 52
53 52 43 24 18 16 15 20 26 29 31 33 35 42 46 48 52 53 55 58 58 59 60 64 68 72 70 67 60 63 64 70 73 72 79 92 105 90 78 69 66 60 55
32 18 9 11 12 15 17 19 22 29 36 43 49 55 59 66 66 64 65 64 65 65 68 69 66 69 70 67 65 64 70 73 75 76 78 90 85 91 77 70 65 59 60
21 24 26 28 30 34 42 44 48 50 52 60 66 71 75 76 75 73 71 73 72 71 71 72 68 67 73 68 62 70 74 75 74 80 81 80 80 83 73 61 57 52 59
29 32 33 39 47 53 55 62 65 70 75 77 82 84 86 86 83 78 74 75 75 78 78 79 71 70 75 76 61 70 73 75 78 84 83 77 92 86 71 59 56 49 39
32 43 56 63 63 61 62 64 64 64 68 70 71 76 77 78 75 71 72 75 76 82 86 81 75 70 75 74 69 63 67 73 83 85 81 79 89 85 74 70 62 54 46
60 63 63 65 64 67 69 68 67 66 65 67 64 60 61 62 56 64 71 75 82 85 82 79 75 71 75 73 66 61 63 69 88 88 75 96 100 93 79 69 72 63 58
59 66 66 66 72 68 63 68 69 65 64 62 62 59 54 52 60 66 75 83 87 90 79 80 73 74 73 70 63 61 64 71 89 84 80 90 90 83 77 78 79 71 66
66 65 69 78 74 69 68 73 72 72 69 67 65 61 63 77 82 87 93 92 88 81 77 76 70 70 66 64 65 60 65 78 99 97 93 97 99 97 76 82 75 70 67
74 70 76 74 74 73 72 77 80 83 83 73 70 72 75 72 73 74 81 75 67 70 74 66 64 65 64 62 59 52 62 84 98 87 87 87 83 80 83 79 72 64 62
72 73 80 85 82 81 82 85 85 76 77 80 95 94 72 64 61 66 67 61 59 63 63 59 61 59 58 53 47 35 43 76 103 101 96 95 83 83 82 76 65 63 63
78 77 78 80 83 73 68 73 78 74 77 77 75 71 68 62 67 70 68 60 65 68 61 59 61 61 68 56 48 42 45 61 61 109 91 88 89 84 78 70 63 65 66
78 74 76 80 85 82 82 81 78 73 75 74 77 74 74 73 65 67 70 68 69 71 63 60 59 65 69 75 57 45 50 56 81 108 101 98 97 91 83 75 74 73 70
75 81 79 78 80 78 77 75 70 68 67 70 68 65 63 63 59 62 65 65 70 71 63 63 62 67 73 72 57 34 41 69 104 117 102 103 101 95 93 88 81 75 72
Wind_Direction_850mb
267 248 237 236 229 232 224 222 220 225 216 215 214 219 223 215 224 245 243 264 285 276 271 276 267 263 247 243 242 241 240 237 240 244 235 226 221 226 231 236 238 236 236
288 261 244 243 235 224 222 222 226 229 226 225 224 236 249 260 260 264 264 262 281 286 287 284 289 278 247 248 243 244 241 238 237 231 216 211 226 229 233 235 235 234 238
303 275 224 226 209 216 219 225 232 236 230 232 226 233 243 251 259 265 266 271 274 277 280 283 283 286 262 247 241 252 242 240 241 232 218 196 224 215 236 239 239 235 238
357 134 163 178 193 208 216 222 224 225 221 230 235 233 239 250 258 266 271 271 272 277 275 270 274 279 276 261 236 229 249 240 238 236 226 226 225 210 215 236 238 235 237
87 97 118 144 161 171 180 194 204 211 220 223 225 234 241 249 258 266 269 275 278 273 271 265 263 265 276 269 246 236 239 233 235 239 234 238 240 244 239 242 227 237 237
99 103 109 114 123 138 168 189 198 206 214 222 227 235 248 257 265 272 278 279 284 284 283 267 260 260 263 274 263 248 239 233 229 239 242 242 239 238 235 235 231 228 236
119 110 103 92 73 70 157 215 229 239 239 242 246 250 256 266 274 277 276 278 281 281 283 283 274 262 264 270 265 254 244 240 232 236 244 246 247 240 252 239 230 217 233
151 158 144 115 24 259 240 249 258 254 250 244 247 256 266 275 279 281 285 284 284 282 283 281 276 268 261 265 264 257 249 241 241 223 235 243 241 243 250 250 247 225 224
72 46 241 226 296 301 271 257 252 248 241 238 241 252 261 273 288 292 293 292 285 281 275 274 276 271 268 261 261 255 252 243 241 229 229 235 235 235 243 248 253 231 215
336 319 324 302 293 284 271 261 254 243 234 233 237 247 272 291 298 300 299 300 292 278 270 267 268 269 269 264 257 255 250 243 247 238 239 231 230 229 236 247 248 245 229
312 311 306 306 294 277 266 265 254 242 232 236 246 265 279 291 294 296 300 302 296 279 270 267 267 267 266 263 258 256 253 246 248 245 235 226 231 231 231 239 243 237 232
299 294 295 295 285 272 268 268 253 233 227 234 250 267 278 280 286 292 295 298 293 284 277 274 271 269 268 267 260 254 257 253 246 245 242 234 231 232 233 234 237 234 231
293 290 290 286 281 269 270 250 221 217 231 243 259 265 274 283 291 294 290 290 293 295 283 275 271 271 271 265 260 254 251 255 254 246 241 239 232 232 228 228 228 227 228
280 287 293 279 271 263 250 235 238 245 252 257 259 269 277 286 290 291 289 286 287 293 296 283 271 269 270 267 258 250 248 256 255 253 240 240 236 231 227 226 225 223 222
281 271 311 346 1 345 324 308 292 282 277 274 271 274 279 284 286 284 281 282 282 288 298 293 275 265 265 265 258 249 247 253 258 250 240 243 236 226 226 227 223 217 214
288 289 309 319 318 310 304 299 292 286 280 276 276 280 282 283 286 282 277 273 278 284 295 291 280 266 262 266 261 251 250 257 251 247 239 240 219 222 220 226 229 226 216
304 306 308 307 305 301 299 295 291 288 284 282 281 280 281 281 280 279 275 267 273 283 290 290 281 267 260 264 265 255 248 254 250 246 238 236 223 222 212 213 211 215 219
302 298 297 296 295 294 290 287 283 282 281 280 278 278 278 278 275 270 263 264 274 284 288 287 279 266 258 258 263 267 246 247 250 246 243 240 209 205 198 196 201 202 199
296 294 292 289 288 289 287 282 278 277 274 272 273 275 273 269 261 259 263 271 279 286 285 282 276 265 256 257 261 262 245 242 246 243 245 230 215 194 193 196 196 193 190
294 293 291 285 288 286 284 279 276 273 272 272 272 271 263 259 262 266 271 275 280 283 280 276 270 266 257 255 257 253 242 240 238 235 238 220 196 189 193 196 195 191 187
296 295 290 287 286 286 284 279 274 271 274 272 269 265 265 272 274 275 276 279 278 276 272 271 268 262 256 254 250 245 238 234 234 231 227 209 200 196 201 194 195 196 189
295 294 292 287 284 283 279 275 273 274 274 266 265 270 272 268 266 267 269 270 264 266 265 266 264 253 258 244 245 253 231 235 233 213 207 193 189 193 190 190 194 194 191
293 293 290 289 286 284 278 274 274 271 266 266 268 271 265 260 261 264 262 258 257 255 258 258 255 253 246 231 230 230 221 225 223 214 203 193 192 182 184 189 188 186 189
296 295 291 286 286 285 281 277 279 278 271 270 269 268 260 257 260 262 258 253 252 252 251 252 247 247 228 224 227 225 217 217 235 215 202 195 174 180 180 182 183 188 189
297 296 292 289 288 290 286 286 282 278 272 269 269 264 259 263 263 260 255 254 252 249 250 248 237 237 233 224 227 227 221 225 221 215 186 173 172 175 176 176 179 182 182
306 306 304 299 297 295 290 287 284 277 274 272 270 266 262 260 258 257 258 257 260 257 247 235 238 244 247 228 217 229 234 219 208 186 176 170 175 174 175 175 177 180 179